Regional Weather Roundup
Issued by NWS

Home | Current Version | Previous Version | Graphics & Text | Print | Product List | Glossary On
Versions: 1 2 3 4 5 6 7 8 9 10 11 12 13 14 15 16 17 18 19 20 21 22 23 24 25 26 27 28 29 30 31 32 33 34 35 36 37 38 39 40 41 42 43 44 45 46 47 48 49 50
000
ASUS45 KBOU 311307
RWRCO

WEATHER ROUNDUP FOR COLORADO
NATIONAL WEATHER SERVICE DENVER/BOULDER CO
700 AM MDT MON AUG 31 2015

NOTE: "FAIR" INDICATES FEW OR NO CLOUDS BELOW 12000 FEET WITH NO
SIGNIFICANT WEATHER AND/OR OBSTRUCTIONS TO VISIBILITY.

COZ001>005-013-030-031-311400-
...NORTHWEST COLORADO...

CITY           SKY/WX    TMP DP  RH WIND       PRES   REMARKS
CRAIG          CLOUDY    55  50  83 SE3       30.22R
HAYDEN         NOT AVBL
MEEKER         NOT AVBL
MOUNT WERNER   NOT AVBL
STEAMBOAT SPGS CLOUDY    51  49  96 NE3       30.28R
WALDEN         CLOUDY    50  46  87 SE3       30.33R
$$

COZ006>008-011-311400-
...WEST CENTRAL VALLEYS...

CITY           SKY/WX    TMP DP  RH WIND       PRES   REMARKS
GRAND JUNCTION CLOUDY    62  56  80 NE10      30.13R
MONTROSE       MOCLDY    58  55  90 CALM      30.21R
EAGLE          CLOUDY    55  54  94 S5        30.30R
RIFLE          CLOUDY    59  56  89 CALM      30.20R
DELTA          RAIN      61  57  86 NE5       30.18R
NUCLA          MOCLDY    63  50  63 E5        30.23R
$$

COZ017>023-064>068-311400-
...SOUTHWEST COLORADO...

CITY           SKY/WX    TMP DP  RH WIND       PRES   REMARKS
DURANGO        MOCLDY    54  47  77 N3        30.26R
CORTEZ         PTCLDY    57  50  77 E6        30.22R
PAGOSA SPRINGS MOCLDY    52  45  77 CALM      30.34R
TELLURIDE      CLOUDY    54  45  71 SE5       30.42R
WOLF CREEK PAS MOCLDY    41  41 100 SW14      30.61R
$$

COZ009-010-012-014-032>034-037-058>063-311400-
...CENTRAL COLORADO...

CITY           SKY/WX    TMP DP  RH WIND       PRES   REMARKS
ASPEN          CLOUDY    53  50  89 CALM      30.31R
BUENA VISTA    MOCLDY    58  45  60 NW6       30.31R
COPPER MTN     PTCLDY    46  36  66 W10       30.57R
BERTHOUD PASS  MOCLDY    37  27  65 NW22G30   30.57S
COTTONWOOD PAS MOCLDY    57  39  51 CALM      30.43R
GUNNISON       CLOUDY    52  45  76 MISG      30.36R
KREMMLING      CLOUDY    54  48  82 CALM      30.32R
LEADVILLE      MOCLDY    47  43  86 NE8       30.42R
MONARCH PASS   MOCLDY    43  37  81 W23       30.66R
SALIDA         MOCLDY    63  45  51 NW8       30.35R
SUNLIGHT       CLOUDY    46  45  93 CALM      30.52R
WILKERSON PASS MOCLDY    48  36  61 W10G18    30.53R
$$

COZ069>075-311400-
...SAN LUIS VALLEY/SANGRE DE CRISTO MOUNTAINS...

CITY           SKY/WX    TMP DP  RH WIND       PRES   REMARKS
ALAMOSA        MOCLDY    54  44  69 CALM      30.29R
LA VETA PASS   MOCLDY    52  39  62 MISG      30.43R
SAGUACHE       MOCLDY    55  45  67 NW5       30.32R
$$

COZ035-036-038>040-311400-
...NORTHERN COLORADO FRONT RANGE...

CITY           SKY/WX    TMP DP  RH WIND       PRES   REMARKS
DENVER INTL AP MOCLDY    67  45  45 E3        30.07R
DMNS CITY PARK   N/A     68  48  49 E7        30.08R
AURORA         MOCLDY    66  47  49 SE7       30.10R
FRONT RANGE AP MOCLDY    66  45  45 CALM      30.08
ERIE MUNI ARPT CLOUDY    69  48  46 CALM      30.06R
BOULDER MUN AP LGT RAIN  73  45  35 CALM      30.06R
CENTENNIAL     CLOUDY    65  47  52 E5        30.10R
BROOMFIELD     MOCLDY    72  46  40 CALM      30.10R
FORT COLLINS   CLOUDY    70  48  46 N8        30.04R
LONGMONT       CLOUDY    73  50  45 SE7       30.06R
$$

COZ041-046-047-076>085-087-088-311400-
...PIKES PEAK/PALMER DIVIDE AND SOUTHERN FOOTHILLS...

CITY           SKY/WX    TMP DP  RH WIND       PRES   REMARKS
COLO. SPRINGS  PTCLDY    66  42  41 NW3       30.13R
A. F. ACADEMY  CLOUDY    68  41  37 N15G22    30.14R
ELLICOTT       NOT AVBL
FALCON         PTCLDY    64  41  42 MISG      30.18R
FORT CARSON    PTCLDY    59  47  65 NW5       30.09R
LIMON          PTCLDY    55  50  83 CALM      30.06R
MONUMENT HILL  PTCLDY    54  43  66 SW6       30.19R
TRINIDAD       CLEAR     63  47  55 SW13      30.09R
$$

COZ042>045-048>051-090-091-311400-
...NORTHEAST COLORADO...

CITY           SKY/WX    TMP DP  RH WIND       PRES   REMARKS
GREELEY ARPT   CLOUDY    66  52  59 CALM      30.03R
AKRON          MOCLDY    65  49  56 NW12      30.02R
BURLINGTON     CLEAR     57  49  74 W14       29.99R
WRAY           CLEAR     57  48  72 W3        29.96R
STERLING       MOCLDY    68  52  56 CALM      29.97S
HOLYOKE        CLEAR     59  54  82 CALM      29.96R
FORT MORGAN    MOCLDY    65  51  60 N12       30.00S
$$

COZ086-089-092>099-311400-
...SOUTHEAST COLORADO...

CITY           SKY/WX    TMP DP  RH WIND       PRES   REMARKS
PUEBLO         CLEAR     64  50  60 MISG      30.02R
LA JUNTA       CLEAR     59  50  72 CALM      29.98R
LAMAR          CLEAR     54  51  90 CALM      29.92R FOG
SPRINGFIELD    NOT AVBL
$$




USA.gov is the U.S. government's official web portal to all federal, state and local government web resources and services.